User: anonymous   Login
Location: Unspecified
(0.0000°N, 0.0000°E)
Time: 07:47:03
(UTC+00:00)
Language:

Tiros 8 - Orbit

View from above orbital plane
View from above orbital plane
View from above satellite
View from above satellite

Ground track
Ground track

The orbit data is extracted from the following two-line orbital elements,

1 00716U 63054A   18112.70068432 -.00000113  00000-0  12064-4 0  9998
2 00716  58.4955 220.1645 0026945  38.6996 321.5965 14.69427975898863
Epoch (UTC): 22 April 2018 16:48:59
Eccentricity: 0.0026945
inclination: 58.4955°
perigee height: 644 km
apogee height: 682 km
right ascension of ascending node: 220.1645°
argument of perigee: 38.6996°
revolutions per day: 14.69427975
mean anomaly at epoch: 321.5965°
orbit number at epoch: 89886

The dashed part of the orbit path shows where the satellite is in the earth's shadow,  

DLR